| time (UTC) | temp F | wind direction | speed knots | gust knots | rain 1hr in | rain 24hr in | rain mn in | humidity % | barometer mb |
| 20260506161035 | 75 | 289 | 8.7 | 9.6 | 0.00 | 0.00 | 0.00 | 65 | 983.6 |
| 20260506160530 | 75 | 294 | 3.5 | 8.7 | 0.00 | 0.00 | 0.00 | 68 | 983.6 |
| 20260506160025 | 75 | 321 | 0.9 | 7.0 | 0.00 | 0.00 | 0.00 | 69 | 983.6 |
| 20260506155519 | 74 | 190 | 1.7 | 3.5 | 0.00 | 0.00 | 0.00 | 69 | 984.1 |
| 20260506155014 | 74 | 339 | 3.5 | 6.1 | 0.00 | 0.00 | 0.00 | 69 | 984.0 |
| 20260506154509 | 74 | 342 | 3.5 | 3.5 | 0.00 | 0.00 | 0.00 | 69 | 984.0 |
| 20260506154004 | 73 | 27 | 1.7 | 5.2 | 0.00 | 0.00 | 0.00 | 70 | 984.2 |
| 20260506153605 | 73 | 229 | 3.5 | 9.6 | 0.00 | 0.00 | 0.00 | 70 | 984.3 |
| 20260506153100 | 73 | 254 | 0.0 | 3.5 | 0.00 | 0.00 | 0.00 | 69 | 984.3 |
| 20260506152550 | 73 | 265 | 3.5 | 4.3 | 0.00 | 0.00 | 0.00 | 69 | 984.3 |
| 20260506152045 | 73 | 157 | 0.0 | 3.5 | 0.00 | 0.00 | 0.00 | 70 | 984.2 |
| 20260506151541 | 72 | 285 | 0.0 | 5.2 | 0.00 | 0.00 | 0.00 | 70 | 984.0 |
| 20260506151035 | 72 | 7 | 3.5 | 6.1 | 0.00 | 0.00 | 0.00 | 70 | 984.0 |
| 20260506150530 | 72 | 297 | 5.2 | 6.1 | 0.00 | 0.00 | 0.00 | 69 | 984.0 |
| 20260506150025 | 73 | 266 | 3.5 | 3.5 | 0.00 | 0.00 | 0.00 | 70 | 983.9 |
| 20260506145520 | 72 | 234 | 2.6 | 5.2 | 0.00 | 0.00 | 0.00 | 68 | 983.9 |
| 20260506145015 | 73 | 274 | 4.3 | 7.0 | 0.00 | 0.00 | 0.00 | 68 | 984.0 |
| 20260506144510 | 72 | 214 | 1.7 | 4.3 | 0.00 | 0.00 | 0.00 | 69 | 984.0 |
| 20260506144005 | 72 | 284 | 0.9 | 4.3 | 0.00 | 0.00 | 0.00 | 70 | 983.7 |
| 20260506143056 | 72 | 44 | 2.6 | 3.5 | 0.00 | 0.00 | 0.00 | 70 | 983.8 |
| 20260506142551 | 72 | 289 | 4.3 | 4.3 | 0.00 | 0.00 | 0.00 | 70 | 983.7 |
| 20260506142046 | 71 | 265 | 1.7 | 2.6 | 0.00 | 0.00 | 0.00 | 72 | 983.8 |
| 20260506141542 | 71 | 21 | 2.6 | 8.7 | 0.00 | 0.00 | 0.00 | 71 | 983.6 |
| 20260506141037 | 71 | 181 | 1.7 | 5.2 | 0.00 | 0.00 | 0.00 | 72 | 983.6 |
| 20260506140531 | 71 | 289 | 7.0 | 7.8 | 0.00 | 0.00 | 0.00 | 73 | 983.5 |
| 20260506140026 | 71 | 139 | 0.0 | 7.8 | 0.00 | 0.00 | 0.00 | 73 | 983.3 |
| 20260506135521 | 72 | 303 | 4.3 | 10.4 | 0.00 | 0.00 | 0.00 | 71 | 983.3 |
| 20260506135017 | 71 | 264 | 0.0 | 3.5 | 0.00 | 0.00 | 0.00 | 74 | 983.4 |
| 20260506134511 | 70 | 192 | 1.7 | 2.6 | 0.00 | 0.00 | 0.00 | 76 | 983.3 |
| 20260506134011 | 70 | 213 | 1.7 | 3.5 | 0.00 | 0.00 | 0.00 | 78 | 983.0 |
| 20260506133506 | 69 | 237 | 1.7 | 4.3 | 0.00 | 0.00 | 0.00 | 79 | 983.1 |
| 20260506133057 | 69 | 281 | 1.7 | 5.2 | 0.00 | 0.00 | 0.00 | 79 | 982.8 |
| 20260506132552 | 69 | 262 | 2.6 | 7.0 | 0.00 | 0.00 | 0.00 | 80 | 982.9 |
| 20260506132047 | 69 | 138 | 4.3 | 4.3 | 0.00 | 0.00 | 0.00 | 80 | 983.1 |
| 20260506131543 | 69 | 179 | 0.9 | 6.1 | 0.00 | 0.00 | 0.00 | 80 | 982.9 |
| 20260506131038 | 69 | 216 | 1.7 | 3.5 | 0.00 | 0.00 | 0.00 | 80 | 982.9 |
| 20260506130533 | 68 | 204 | 4.3 | 6.1 | 0.00 | 0.00 | 0.00 | 80 | 982.8 |
| 20260506130027 | 68 | 308 | 6.1 | 7.8 | 0.00 | 0.00 | 0.00 | 81 | 982.8 |
| 20260506125522 | 68 | 207 | 1.7 | 6.1 | 0.00 | 0.00 | 0.00 | 82 | 982.9 |
| 20260506125017 | 68 | 295 | 1.7 | 5.2 | 0.00 | 0.00 | 0.00 | 83 | 982.9 |
| 20260506124512 | 67 | 287 | 0.9 | 3.5 | 0.00 | 0.00 | 0.00 | 84 | 982.9 |
| 20260506124012 | 67 | 15 | 0.9 | 1.7 | 0.00 | 0.00 | 0.00 | 85 | 983.0 |
| 20260506123507 | 66 | 164 | 2.6 | 3.5 | 0.00 | 0.00 | 0.00 | 85 | 982.9 |
| 20260506123058 | 66 | 298 | 0.9 | 7.0 | 0.00 | 0.00 | 0.00 | 85 | 982.7 |
| 20260506122553 | 66 | 309 | 1.7 | 3.5 | 0.00 | 0.00 | 0.00 | 85 | 982.8 |
| 20260506122049 | 66 | 309 | 0.0 | 3.5 | 0.00 | 0.00 | 0.00 | 85 | 982.8 |
| 20260506121548 | 66 | 39 | 0.0 | 3.5 | 0.00 | 0.00 | 0.00 | 85 | 982.7 |
| 20260506121038 | 66 | 32 | 0.0 | 1.7 | 0.00 | 0.00 | 0.00 | 85 | 982.8 |
| 20260506120533 | 66 | 126 | 0.9 | 2.6 | 0.00 | 0.00 | 0.00 | 85 | 982.8 |
| 20260506120028 | 66 | 29 | 0.9 | 3.5 | 0.00 | 0.00 | 0.00 | 85 | 982.6 |
| 20260506115523 | 66 | 346 | 1.7 | 1.7 | 0.00 | 0.00 | 0.00 | 85 | 982.7 |
| 20260506115023 | 65 | 131 | 0.0 | 1.7 | 0.00 | 0.00 | 0.00 | 85 | 982.3 |
| 20260506114512 | 65 | 347 | 1.7 | 5.2 | 0.00 | 0.00 | 0.00 | 86 | 982.3 |
| 20260506114008 | 65 | 45 | 1.7 | 4.3 | 0.00 | 0.00 | 0.00 | 86 | 982.3 |
| 20260506113502 | 65 | 357 | 0.9 | 1.7 | 0.00 | 0.00 | 0.00 | 86 | 982.4 |
| 20260506113058 | 64 | 356 | 3.5 | 3.5 | 0.00 | 0.00 | 0.00 | 86 | 982.3 |
| 20260506112553 | 64 | 91 | 0.0 | 1.7 | 0.00 | 0.00 | 0.00 | 86 | 982.2 |
| 20260506112048 | 64 | 218 | 0.9 | 2.6 | 0.00 | 0.00 | 0.00 | 86 | 982.3 |
| 20260506111544 | 64 | 305 | 0.9 | 2.6 | 0.00 | 0.00 | 0.00 | 86 | 982.3 |
| 20260506111039 | 64 | 269 | 0.0 | 1.7 | 0.00 | 0.00 | 0.00 | 85 | 982.4 |
| 20260506110535 | 64 | 322 | 0.0 | 2.6 | 0.00 | 0.00 | 0.00 | 85 | 982.2 |
| 20260506110029 | 63 | 333 | 0.0 | 2.6 | 0.00 | 0.00 | 0.00 | 84 | 982.2 |
| 20260506105524 | 63 | 334 | 0.9 | 2.6 | 0.00 | 0.00 | 0.00 | 84 | 982.0 |
| 20260506105019 | 63 | 317 | 1.7 | 2.6 | 0.00 | 0.00 | 0.00 | 84 | 982.1 |
| 20260506104514 | 63 | 89 | 0.0 | 2.6 | 0.00 | 0.00 | 0.00 | 84 | 982.1 |
| 20260506104009 | 63 | 21 | 1.7 | 1.7 | 0.00 | 0.00 | 0.00 | 84 | 981.9 |
| 20260506103504 | 63 | 11 | 0.9 | 1.7 | 0.00 | 0.00 | 0.00 | 84 | 981.7 |
| 20260506103100 | 63 | 334 | 0.0 | 1.7 | 0.00 | 0.00 | 0.00 | 84 | 981.8 |
| 20260506102554 | 63 | 265 | 1.7 | 3.5 | 0.00 | 0.00 | 0.00 | 84 | 981.7 |
| 20260506102054 | 63 | 244 | 1.7 | 1.7 | 0.00 | 0.00 | 0.00 | 83 | 981.5 |
| 20260506101545 | 63 | 55 | 0.9 | 1.7 | 0.00 | 0.00 | 0.00 | 83 | 981.5 |
| 20260506101040 | 63 | 352 | 1.7 | 2.6 | 0.00 | 0.00 | 0.00 | 83 | 981.5 |
| 20260506100535 | 63 | 278 | 2.6 | 3.5 | 0.00 | 0.00 | 0.00 | 82 | 981.5 |
| 20260506100030 | 63 | 47 | 0.9 | 1.7 | 0.00 | 0.00 | 0.00 | 82 | 981.2 |
| 20260506095525 | 63 | 130 | 0.0 | 1.7 | 0.00 | 0.00 | 0.00 | 81 | 981.2 |
| 20260506095019 | 63 | 345 | 0.9 | 0.9 | 0.00 | 0.00 | 0.00 | 81 | 981.4 |
| 20260506094514 | 63 | 293 | 4.3 | 5.2 | 0.00 | 0.00 | 0.00 | 81 | 981.5 |
| 20260506094010 | 63 | 167 | 0.0 | 2.6 | 0.00 | 0.00 | 0.00 | 81 | 981.4 |
| 20260506093504 | 63 | 143 | 0.9 | 2.6 | 0.00 | 0.00 | 0.00 | 81 | 981.2 |
| 20260506093101 | 63 | 354 | 0.9 | 1.7 | 0.00 | 0.00 | 0.00 | 80 | 981.2 |
| 20260506092556 | 63 | 135 | 0.0 | 1.7 | 0.00 | 0.00 | 0.00 | 80 | 981.1 |
| 20260506092050 | 63 | 326 | 0.0 | 0.9 | 0.00 | 0.00 | 0.00 | 79 | 981.1 |
| 20260506091545 | 63 | 129 | 0.0 | 0.9 | 0.00 | 0.00 | 0.00 | 79 | 981.0 |
| 20260506091040 | 63 | 302 | 0.0 | 1.7 | 0.00 | 0.00 | 0.00 | 79 | 980.9 |
| 20260506090535 | 63 | 225 | 0.9 | 0.9 | 0.00 | 0.00 | 0.00 | 79 | 981.1 |
| 20260506090029 | 63 | 166 | 0.0 | 0.0 | 0.00 | 0.00 | 0.00 | 78 | 981.1 |
| 20260506085524 | 63 | 33 | 0.9 | 1.7 | 0.00 | 0.00 | 0.00 | 78 | 981.1 |
| 20260506085019 | 63 | 358 | 1.7 | 2.6 | 0.00 | 0.00 | 0.00 | 78 | 981.1 |
| 20260506084515 | 63 | 135 | 0.0 | 1.7 | 0.00 | 0.00 | 0.00 | 77 | 981.0 |
| 20260506084010 | 63 | 235 | 0.0 | 1.7 | 0.00 | 0.00 | 0.00 | 76 | 981.0 |
| 20260506083505 | 63 | 34 | 0.9 | 1.7 | 0.00 | 0.00 | 0.00 | 76 | 981.0 |
| 20260506082556 | 63 | 325 | 1.7 | 2.6 | 0.00 | 0.00 | 0.00 | 75 | 981.0 |
| 20260506082051 | 62 | 308 | 1.7 | 1.7 | 0.00 | 0.00 | 0.00 | 74 | 981.2 |
| 20260506081546 | 62 | 55 | 0.0 | 0.9 | 0.00 | 0.00 | 0.00 | 73 | 981.1 |
| 20260506081042 | 62 | 157 | 0.0 | 0.9 | 0.00 | 0.00 | 0.00 | 73 | 980.9 |
| 20260506080537 | 62 | 249 | 0.0 | 1.7 | 0.00 | 0.00 | 0.00 | 73 | 981.2 |
| 20260506073506 | 61 | 135 | 0.0 | 1.7 | 0.00 | 0.00 | 0.00 | 70 | 981.3 |
| 20260506073001 | 61 | 38 | 0.0 | 1.7 | 0.00 | 0.00 | 0.00 | 70 | 981.4 |
| 20260506072557 | 61 | 97 | 0.9 | 0.9 | 0.00 | 0.00 | 0.00 | 70 | 981.2 |
| 20260506072052 | 61 | 122 | 0.0 | 0.0 | 0.00 | 0.00 | 0.00 | 70 | 981.5 |
| 20260506071547 | 61 | 146 | 0.0 | 0.9 | 0.00 | 0.00 | 0.00 | 71 | 981.8 |
| 20260506071042 | 60 | 142 | 0.0 | 0.0 | 0.00 | 0.00 | 0.00 | 71 | 981.8 |
| 20260506070537 | 60 | 37 | 0.0 | 0.9 | 0.00 | 0.00 | 0.00 | 70 | 981.7 |
| 20260506062057 | 62 | 141 | 0.0 | 1.7 | 0.00 | 0.00 | 0.00 | 66 | 981.9 |
| 20260506061549 | 62 | 28 | 0.0 | 0.9 | 0.00 | 0.00 | 0.00 | 65 | 982.0 |
| 20260506061043 | 62 | 37 | 0.0 | 0.0 | 0.00 | 0.00 | 0.00 | 64 | 981.8 |
| 20260506060538 | 63 | 29 | 0.0 | 0.0 | 0.00 | 0.00 | 0.00 | 64 | 981.9 |
| 20260506051049 | 63 | 283 | 0.0 | 0.0 | 0.00 | 0.00 | 0.00 | 62 | 981.3 |
| 20260506050544 | 63 | 352 | 0.0 | 1.7 | 0.00 | 0.00 | 0.00 | 62 | 981.6 |
| 20260506045023 | 64 | 113 | 0.0 | 0.0 | 0.00 | 0.00 | 0.00 | 61 | 981.8 |
| 20260506044519 | 64 | 269 | 0.0 | 0.0 | 0.00 | 0.00 | 0.00 | 60 | 982.2 |
| 20260506044014 | 64 | 297 | 0.0 | 0.9 | 0.00 | 0.00 | 0.00 | 60 | 981.8 |
| 20260506043509 | 64 | 256 | 0.0 | 0.9 | 0.00 | 0.00 | 0.00 | 60 | 982.0 |
| 20260506043008 | 64 | 314 | 0.9 | 1.7 | 0.00 | 0.00 | 0.00 | 60 | 981.8 |
| 20260506042559 | 64 | 238 | 0.0 | 1.7 | 0.00 | 0.00 | 0.00 | 61 | 981.8 |
| 20260506042055 | 64 | 299 | 1.7 | 2.6 | 0.00 | 0.00 | 0.00 | 60 | 981.8 |
| 20260506041551 | 64 | 309 | 0.0 | 1.7 | 0.00 | 0.00 | 0.00 | 62 | 981.7 |
| 20260506041045 | 64 | 286 | 0.9 | 0.9 | 0.00 | 0.00 | 0.00 | 62 | 981.5 |
| 20260506040545 | 64 | 342 | 0.9 | 1.7 | 0.00 | 0.00 | 0.00 | 62 | 981.7 |
| 20260506040040 | 64 | 245 | 1.7 | 1.7 | 0.00 | 0.00 | 0.00 | 61 | 981.5 |
| 20260506035535 | 64 | 144 | 0.0 | 0.9 | 0.00 | 0.00 | 0.00 | 60 | 981.4 |
| 20260506035025 | 64 | 326 | 0.0 | 0.0 | 0.00 | 0.00 | 0.00 | 60 | 981.6 |
| 20260506034520 | 64 | 283 | 0.0 | 0.9 | 0.00 | 0.00 | 0.00 | 61 | 981.9 |
| 20260506034015 | 64 | 246 | 0.0 | 0.0 | 0.00 | 0.00 | 0.00 | 60 | 981.7 |
| 20260506033510 | 64 | 304 | 0.0 | 0.9 | 0.00 | 0.00 | 0.00 | 61 | 981.8 |
| 20260506033009 | 64 | 345 | 0.0 | 0.0 | 0.00 | 0.00 | 0.00 | 59 | 981.9 |
| 20260506032100 | 64 | 142 | 0.0 | 0.0 | 0.00 | 0.00 | 0.00 | 60 | 981.8 |
| 20260506031552 | 64 | 173 | 0.0 | 0.0 | 0.00 | 0.00 | 0.00 | 59 | 981.8 |
| 20260506031047 | 64 | 147 | 0.0 | 0.0 | 0.00 | 0.00 | 0.00 | 58 | 981.8 |
| 20260506030542 | 65 | 293 | 0.0 | 0.0 | 0.00 | 0.00 | 0.00 | 58 | 981.8 |
| 20260506030036 | 65 | 311 | 0.9 | 1.7 | 0.00 | 0.00 | 0.00 | 58 | 981.9 |
| 20260506025532 | 65 | 224 | 0.0 | 0.9 | 0.00 | 0.00 | 0.00 | 59 | 981.9 |
| 20260506025031 | 65 | 141 | 0.0 | 0.9 | 0.00 | 0.00 | 0.00 | 58 | 981.8 |
| 20260506024522 | 65 | 266 | 1.7 | 1.7 | 0.00 | 0.00 | 0.00 | 59 | 981.9 |
| 20260506024016 | 65 | 258 | 0.0 | 1.7 | 0.00 | 0.00 | 0.00 | 59 | 981.7 |
| 20260506023511 | 65 | 283 | 0.0 | 0.9 | 0.00 | 0.00 | 0.00 | 58 | 981.9 |
| 20260506023011 | 65 | 338 | 0.0 | 0.9 | 0.00 | 0.00 | 0.00 | 58 | 981.8 |
| 20260506022501 | 65 | 148 | 0.0 | 0.0 | 0.00 | 0.00 | 0.00 | 58 | 982.0 |
| 20260506022057 | 65 | 290 | 0.0 | 0.0 | 0.00 | 0.00 | 0.00 | 57 | 981.9 |
| 20260506021553 | 66 | 230 | 0.0 | 0.0 | 0.00 | 0.00 | 0.00 | 56 | 981.9 |
| 20260506021053 | 66 | 219 | 0.0 | 0.9 | 0.00 | 0.00 | 0.00 | 56 | 981.8 |
| 20260506020542 | 66 | 142 | 0.0 | 0.0 | 0.00 | 0.00 | 0.00 | 56 | 981.7 |
| 20260506020043 | 66 | 141 | 0.0 | 0.9 | 0.00 | 0.00 | 0.00 | 56 | 981.8 |
| 20260506015532 | 66 | 142 | 0.0 | 0.9 | 0.00 | 0.00 | 0.00 | 56 | 981.7 |
| 20260506015028 | 66 | 157 | 0.0 | 0.9 | 0.00 | 0.00 | 0.00 | 55 | 981.7 |
| 20260506014522 | 66 | 290 | 0.9 | 0.9 | 0.00 | 0.00 | 0.00 | 55 | 981.7 |
| 20260506014017 | 66 | 142 | 0.0 | 0.9 | 0.00 | 0.00 | 0.00 | 54 | 981.4 |
| 20260506013512 | 67 | 150 | 0.0 | 0.0 | 0.00 | 0.00 | 0.00 | 55 | 981.6 |
| 20260506013007 | 67 | 169 | 0.0 | 0.9 | 0.00 | 0.00 | 0.00 | 54 | 981.7 |
| 20260506012502 | 67 | 129 | 0.0 | 0.9 | 0.00 | 0.00 | 0.00 | 54 | 981.6 |
| 20260506012058 | 67 | 142 | 0.0 | 0.0 | 0.00 | 0.00 | 0.00 | 53 | 981.6 |
| 20260506011553 | 68 | 110 | 0.0 | 0.0 | 0.00 | 0.00 | 0.00 | 52 | 981.4 |
| 20260506011048 | 68 | 142 | 0.0 | 0.0 | 0.00 | 0.00 | 0.00 | 52 | 981.5 |
| 20260506010543 | 68 | 217 | 0.0 | 0.0 | 0.00 | 0.00 | 0.00 | 51 | 981.5 |
| 20260506010038 | 69 | 199 | 0.0 | 0.9 | 0.00 | 0.00 | 0.00 | 50 | 981.6 |
| 20260506005533 | 69 | 212 | 0.0 | 0.0 | 0.00 | 0.00 | 0.00 | 49 | 981.6 |
| 20260506005027 | 70 | 142 | 0.0 | 0.0 | 0.00 | 0.00 | 0.00 | 49 | 981.6 |
| 20260506004523 | 70 | 142 | 0.0 | 0.9 | 0.00 | 0.00 | 0.00 | 49 | 981.5 |
| 20260506004017 | 71 | 141 | 0.0 | 0.9 | 0.00 | 0.00 | 0.00 | 48 | 981.7 |
| 20260506003512 | 71 | 143 | 0.0 | 0.0 | 0.00 | 0.00 | 0.00 | 48 | 981.7 |
| 20260506003007 | 72 | 238 | 0.0 | 1.7 | 0.00 | 0.00 | 0.00 | 47 | 981.8 |
| 20260506002507 | 72 | 310 | 0.0 | 1.7 | 0.00 | 0.00 | 0.00 | 45 | 981.6 |
| 20260506002058 | 72 | 242 | 0.0 | 0.0 | 0.00 | 0.00 | 0.00 | 46 | 981.5 |
| 20260506001554 | 73 | 95 | 1.7 | 1.7 | 0.00 | 0.00 | 0.00 | 43 | 981.4 |
| 20260506001049 | 73 | 259 | 0.0 | 0.9 | 0.00 | 0.00 | 0.00 | 43 | 981.5 |
| 20260506000544 | 73 | 245 | 0.0 | 1.7 | 0.00 | 0.00 | 0.00 | 43 | 981.6 |
| 20260506000039 | 74 | 199 | 0.9 | 1.7 | 0.00 | 0.00 | 0.00 | 42 | 981.2 |
| 20260505235534 | 74 | 166 | 0.9 | 2.6 | 0.00 | 0.00 | 0.00 | 40 | 981.4 |
| 20260505235029 | 75 | 60 | 0.0 | 1.7 | 0.00 | 0.00 | 0.00 | 39 | 981.1 |
| 20260505234528 | 75 | 23 | 0.0 | 2.6 | 0.00 | 0.00 | 0.00 | 38 | 981.3 |
| 20260505234019 | 76 | 241 | 0.0 | 2.6 | 0.00 | 0.00 | 0.00 | 40 | 981.4 |
| 20260505233519 | 76 | 231 | 2.6 | 2.6 | 0.00 | 0.00 | 0.00 | 38 | 981.4 |
| 20260505233009 | 76 | 272 | 0.0 | 2.6 | 0.00 | 0.00 | 0.00 | 38 | 981.4 |
| 20260505232504 | 76 | 252 | 0.0 | 3.5 | 0.00 | 0.00 | 0.00 | 38 | 981.5 |
| 20260505232104 | 76 | 321 | 1.7 | 6.1 | 0.00 | 0.00 | 0.00 | 38 | 981.3 |
| 20260505231054 | 77 | 338 | 3.5 | 4.3 | 0.00 | 0.00 | 0.00 | 37 | 981.2 |
| 20260505230554 | 77 | 327 | 3.5 | 5.2 | 0.00 | 0.00 | 0.00 | 35 | 981.1 |
| 20260505230044 | 78 | 180 | 0.0 | 1.7 | 0.00 | 0.00 | 0.00 | 36 | 981.1 |
| 20260505225539 | 79 | 244 | 3.5 | 3.5 | 0.00 | 0.00 | 0.00 | 34 | 981.3 |
| 20260505225034 | 80 | 303 | 3.5 | 5.2 | 0.00 | 0.00 | 0.00 | 32 | 981.1 |
| 20260505224529 | 81 | 234 | 1.7 | 4.3 | 0.00 | 0.00 | 0.00 | 32 | 981.1 |
| 20260505224029 | 81 | 293 | 0.9 | 3.5 | 0.00 | 0.00 | 0.00 | 32 | 981.1 |
| 20260505223524 | 81 | 231 | 0.9 | 5.2 | 0.00 | 0.00 | 0.00 | 32 | 981.1 |
| 20260505223013 | 81 | 258 | 2.6 | 3.5 | 0.00 | 0.00 | 0.00 | 35 | 981.0 |
| 20260505222509 | 81 | 81 | 0.9 | 2.6 | 0.00 | 0.00 | 0.00 | 34 | 981.1 |
| 20260505222003 | 81 | 300 | 0.9 | 5.2 | 0.00 | 0.00 | 0.00 | 33 | 980.9 |
| 20260505221559 | 81 | 284 | 3.5 | 5.2 | 0.00 | 0.00 | 0.00 | 32 | 981.0 |
| 20260505221054 | 81 | 299 | 0.9 | 9.6 | 0.00 | 0.00 | 0.00 | 32 | 980.7 |
| 20260505220555 | 82 | 286 | 1.7 | 4.3 | 0.00 | 0.00 | 0.00 | 31 | 980.9 |
| 20260505220044 | 82 | 290 | 1.7 | 5.2 | 0.00 | 0.00 | 0.00 | 31 | 981.0 |
| 20260505215539 | 82 | 272 | 0.9 | 5.2 | 0.00 | 0.00 | 0.00 | 32 | 980.7 |
| 20260505215034 | 83 | 140 | 0.9 | 5.2 | 0.00 | 0.00 | 0.00 | 31 | 980.9 |
| 20260505214529 | 81 | 150 | 0.0 | 4.3 | 0.00 | 0.00 | 0.00 | 35 | 981.0 |
| 20260505214024 | 82 | 318 | 3.5 | 11.3 | 0.00 | 0.00 | 0.00 | 32 | 981.1 |
| 20260505213519 | 83 | 40 | 2.6 | 3.5 | 0.00 | 0.00 | 0.00 | 33 | 981.3 |
| 20260505213014 | 81 | 109 | 3.5 | 3.5 | 0.00 | 0.00 | 0.00 | 32 | 981.1 |
| 20260505212514 | 82 | 283 | 4.3 | 5.2 | 0.00 | 0.00 | 0.00 | 33 | 981.2 |
| 20260505212004 | 82 | 230 | 0.0 | 3.5 | 0.00 | 0.00 | 0.00 | 33 | 981.1 |
| 20260505211600 | 81 | 245 | 6.1 | 7.8 | 0.00 | 0.00 | 0.00 | 32 | 981.2 |
| 20260505211055 | 82 | 344 | 0.9 | 5.2 | 0.00 | 0.00 | 0.00 | 32 | 981.2 |
| 20260505210555 | 82 | 43 | 2.6 | 4.3 | 0.00 | 0.00 | 0.00 | 33 | 981.3 |
| 20260505210050 | 81 | 269 | 0.0 | 3.5 | 0.00 | 0.00 | 0.00 | 36 | 981.2 |
| 20260505205540 | 80 | 333 | 7.0 | 7.0 | 0.00 | 0.00 | 0.00 | 34 | 981.3 |
| 20260505205035 | 80 | 163 | 1.7 | 3.5 | 0.00 | 0.00 | 0.00 | 34 | 981.2 |
| 20260505204530 | 80 | 116 | 1.7 | 5.2 | 0.00 | 0.00 | 0.00 | 35 | 981.6 |
| 20260505204025 | 80 | 99 | 3.5 | 6.1 | 0.00 | 0.00 | 0.00 | 36 | 981.7 |
| 20260505203525 | 80 | 125 | 3.5 | 3.5 | 0.00 | 0.00 | 0.00 | 35 | 981.9 |
| 20260505203015 | 81 | 258 | 1.7 | 5.2 | 0.00 | 0.00 | 0.00 | 33 | 981.9 |
| 20260505202510 | 82 | 300 | 5.2 | 5.2 | 0.00 | 0.00 | 0.00 | 32 | 981.9 |
| 20260505202005 | 83 | 267 | 3.5 | 9.6 | 0.00 | 0.00 | 0.00 | 30 | 981.9 |
| 20260505201056 | 81 | 160 | 0.9 | 8.7 | 0.00 | 0.00 | 0.00 | 33 | 982.0 |
| 20260505200551 | 82 | 244 | 2.6 | 7.0 | 0.00 | 0.00 | 0.00 | 31 | 982.0 |
| 20260505200046 | 80 | 276 | 2.6 | 7.8 | 0.00 | 0.00 | 0.00 | 34 | 982.1 |
| 20260505195541 | 80 | 87 | 0.0 | 4.3 | 0.00 | 0.00 | 0.00 | 34 | 982.2 |
| 20260505195036 | 80 | 166 | 0.9 | 3.5 | 0.00 | 0.00 | 0.00 | 33 | 982.3 |
| 20260505194531 | 81 | 251 | 3.5 | 5.2 | 0.00 | 0.00 | 0.00 | 31 | 982.4 |
| 20260505194026 | 80 | 202 | 0.9 | 7.8 | 0.00 | 0.00 | 0.00 | 34 | 982.4 |
| 20260505193520 | 80 | 134 | 3.5 | 6.1 | 0.00 | 0.00 | 0.00 | 33 | 982.5 |
| 20260505193020 | 81 | 319 | 3.5 | 5.2 | 0.00 | 0.00 | 0.00 | 36 | 982.6 |
| 20260505192510 | 80 | 174 | 1.7 | 3.5 | 0.00 | 0.00 | 0.00 | 37 | 982.6 |
| 20260505192005 | 79 | 111 | 1.7 | 5.2 | 0.00 | 0.00 | 0.00 | 36 | 982.6 |
| 20260505191056 | 79 | 55 | 4.3 | 5.2 | 0.00 | 0.00 | 0.00 | 35 | 982.4 |
| 20260505190556 | 80 | 73 | 2.6 | 5.2 | 0.00 | 0.00 | 0.00 | 36 | 982.8 |
| 20260505190051 | 80 | 317 | 6.1 | 7.0 | 0.00 | 0.00 | 0.00 | 35 | 982.8 |
| 20260505185545 | 79 | 305 | 1.7 | 4.3 | 0.00 | 0.00 | 0.00 | 36 | 982.9 |
| 20260505185035 | 79 | 295 | 2.6 | 5.2 | 0.00 | 0.00 | 0.00 | 36 | 983.0 |
| 20260505184530 | 78 | 43 | 3.5 | 5.2 | 0.00 | 0.00 | 0.00 | 39 | 983.2 |
| 20260505184026 | 78 | 295 | 2.6 | 6.1 | 0.00 | 0.00 | 0.00 | 39 | 983.1 |
| 20260505183521 | 77 | 327 | 1.7 | 4.3 | 0.00 | 0.00 | 0.00 | 39 | 983.4 |
| 20260505183016 | 77 | 346 | 7.0 | 7.8 | 0.00 | 0.00 | 0.00 | 39 | 983.2 |
| 20260505182516 | 77 | 289 | 6.1 | 13.0 | 0.00 | 0.00 | 0.00 | 38 | 983.2 |
| 20260505182006 | 77 | 102 | 1.7 | 8.7 | 0.00 | 0.00 | 0.00 | 40 | 983.4 |
| 20260505181501 | 78 | 319 | 3.5 | 6.1 | 0.00 | 0.00 | 0.00 | 37 | 983.5 |
| 20260505181057 | 78 | 305 | 3.5 | 7.0 | 0.00 | 0.00 | 0.00 | 39 | 983.6 |
| 20260505180552 | 77 | 171 | 3.5 | 5.2 | 0.00 | 0.00 | 0.00 | 38 | 983.6 |
| 20260505180047 | 77 | 133 | 0.9 | 2.6 | 0.00 | 0.00 | 0.00 | 38 | 983.7 |
| 20260505175542 | 77 | 318 | 5.2 | 7.0 | 0.00 | 0.00 | 0.00 | 39 | 984.0 |
| 20260505175042 | 77 | 319 | 1.7 | 4.3 | 0.00 | 0.00 | 0.00 | 40 | 984.0 |
| 20260505174537 | 77 | 181 | 0.9 | 3.5 | 0.00 | 0.00 | 0.00 | 39 | 984.1 |
| 20260505174027 | 76 | 240 | 0.0 | 5.2 | 0.00 | 0.00 | 0.00 | 43 | 984.0 |
| 20260505173522 | 76 | 273 | 2.6 | 11.3 | 0.00 | 0.00 | 0.00 | 42 | 984.2 |
| 20260505173018 | 76 | 216 | 1.7 | 6.1 | 0.00 | 0.00 | 0.00 | 40 | 984.0 |
| 20260505172512 | 76 | 149 | 1.7 | 5.2 | 0.00 | 0.00 | 0.00 | 40 | 984.1 |
| 20260505172008 | 77 | 220 | 4.3 | 4.3 | 0.00 | 0.00 | 0.00 | 40 | 984.1 |
| 20260505171507 | 76 | 35 | 0.9 | 3.5 | 0.00 | 0.00 | 0.00 | 43 | 984.1 |
| 20260505171058 | 76 | 230 | 4.3 | 11.3 | 0.00 | 0.00 | 0.00 | 40 | 984.3 |
| 20260505170558 | 76 | 284 | 0.9 | 5.2 | 0.00 | 0.00 | 0.00 | 41 | 984.2 |
| 20260505170048 | 77 | 45 | 1.7 | 4.3 | 0.00 | 0.00 | 0.00 | 40 | 984.2 |
| 20260505165548 | 76 | 63 | 0.9 | 7.0 | 0.00 | 0.00 | 0.00 | 43 | 984.2 |
| 20260505165038 | 75 | 287 | 0.9 | 3.5 | 0.00 | 0.00 | 0.00 | 45 | 984.2 |
| 20260505164533 | 75 | 284 | 4.3 | 8.7 | 0.00 | 0.00 | 0.00 | 43 | 984.4 |
| 20260505164028 | 75 | 23 | 0.9 | 5.2 | 0.00 | 0.00 | 0.00 | 41 | 984.4 |
| 20260505163523 | 75 | 15 | 1.7 | 7.8 | 0.00 | 0.00 | 0.00 | 44 | 984.2 |
| 20260505163019 | 74 | 281 | 2.6 | 3.5 | 0.00 | 0.00 | 0.00 | 45 | 984.3 |
| 20260505162513 | 73 | 257 | 0.0 | 1.7 | 0.00 | 0.00 | 0.00 | 46 | 984.2 |
| 20260505162008 | 72 | 307 | 6.1 | 7.0 | 0.00 | 0.00 | 0.00 | 46 | 984.5 |
| 20260505161503 | 72 | 0 | 3.5 | 4.3 | 0.00 | 0.00 | 0.00 | 46 | 984.4 |